Location: Newark
(7.0858°N, 171.3717°E)
Time: 05:18:00
(UTC+00:00)

Courier 1B Rocket - Pass Details

Date: 06 December 2020
Orbit: 920 x 1202 km, 28.2° (Epoch: 20 January)

Event Time Altitude Azimuth Distance (km) Brightness Sun altitude
Rises 01:18:00 0° 260° (W) 3,905 8.4 57.7°
Reaches altitude 10° 01:22:59 10° 231° (SW) 2,873 8.1 57.2°
Maximum altitude 01:25:30 12° 210° (SSW) 2,682 8.1 57.0°
Drops below altitude 10° 01:27:59 10° 188° (S) 2,796 8.1 56.7°
Sets 01:32:41 0° 158° (SSE) 3,676 8.3 56.1°
